Temp
4 5 6 6 6 6 6 6 7 7 7 8 8 8 8 8 8 7 8 8 8 7 7 8 10 9 9 9 11 11 11 10 8 10 9 9 11 13 15 17 14 12 11 11 11 12 13 16 17 16 14 15 15 14
5 4 5 5 5 6 6 6 6 6 7 8 8 8 8 8 8 7 8 8 8 7 5 8 9 10 10 10 9 9 11 12 10 8 9 11 11 13 13 11 15 12 12 10 11 12 14 17 16 15 15 14 15 13
5 5 5 5 5 6 6 6 6 6 7 7 7 7 7 7 8 7 8 8 8 4 4 6 8 9 10 10 11 9 9 10 11 11 11 11 12 12 10 11 15 16 15 13 13 15 15 15 18 16 15 14 14 12
5 5 5 5 5 5 6 6 6 7 7 7 7 7 7 7 7 7 8 7 8 5 5 5 7 8 9 10 10 11 10 10 10 10 11 7 9 13 11 12 12 12 16 15 13 16 16 17 17 17 16 14 12 11
5 5 5 5 6 6 6 7 7 6 6 6 7 7 7 7 7 7 7 7 8 7 4 4 6 7 9 9 9 10 11 9 9 10 9 9 11 11 9 10 9 14 14 10 10 15 14 15 17 16 13 12 10 10
5 5 5 5 6 6 6 6 6 7 7 7 6 7 7 7 7 6 4 6 7 7 3 4 5 6 7 9 9 10 10 10 10 10 9 10 12 9 7 7 13 15 15 15 14 16 15 14 14 16 13 11 10 9
4 4 5 5 5 5 6 6 6 6 6 6 6 6 6 6 6 6 4 7 7 7 3 4 4 5 6 8 8 8 9 8 8 7 6 8 9 9 5 7 13 13 14 13 14 14 13 14 13 14 14 12 11 11
4 4 4 5 5 5 5 5 6 6 6 6 6 6 6 6 5 6 7 8 6 5 3 4 5 4 5 5 5 7 5 7 7 7 7 9 9 7 7 11 12 13 14 14 14 14 12 13 13 14 13 10 9 7
4 4 4 4 5 5 5 5 5 5 5 5 5 6 6 5 4 6 7 6 6 5 3 4 6 5 5 6 5 6 6 5 7 5 7 8 5 7 10 12 13 13 13 14 13 13 13 12 12 12 9 8 8 7
4 4 4 4 4 5 5 5 5 5 5 4 4 3 2 4 6 6 6 4 4 4 4 5 5 5 5 5 5 5 5 6 6 7 9 6 9 11 12 12 12 12 13 13 11 11 11 11 11 11 11 9 8 7
3 4 4 4 4 4 5 5 5 5 4 3 0 1 4 6 6 3 3 4 3 3 3 4 7 4 5 6 6 6 6 6 7 6 8 6 6 9 11 11 12 13 13 13 12 11 11 11 10 9 9 7 7 5
3 3 4 4 4 4 4 5 5 4 3 2 3 5 6 4 3 3 4 3 4 5 4 5 6 5 5 6 5 5 6 6 7 7 5 6 7 12 11 12 12 12 12 12 13 12 12 12 12 9 6 6 6 6
3 3 3 3 4 4 4 4 5 4 4 5 6 3 3 3 4 4 4 5 4 4 6 6 6 5 5 6 5 6 6 5 8 4 6 6 9 11 11 11 11 11 12 11 11 12 12 11 12 9 6 6 5 4
4 3 3 3 4 4 4 4 4 4 5 3 3 3 3 3 3 4 5 6 4 5 7 8 7 6 6 5 5 6 6 7 4 6 7 5 10 11 11 11 11 11 11 10 10 10 9 9 8 8 7 5 3 1
3 3 3 4 4 3 4 4 4 5 5 3 3 4 3 4 4 6 7 8 8 8 9 8 7 6 5 5 5 7 6 6 7 7 7 7 10 10 10 10 10 9 8 8 9 7 1 4 4 2 4 3 1 -1
4 4 4 3 4 3 4 4 4 3 2 3 4 4 4 5 4 5 5 7 8 10 9 7 6 6 6 6 6 6 7 8 7 6 6 8 10 10 10 9 9 9 8 7 4 3 2 1 1 -1 -0 -1 -1 -1
4 5 4 4 3 3 4 4 1 1 3 3 3 3 3 5 6 6 7 7 10 8 7 4 6 6 6 6 7 6 5 8 4 6 7 9 10 9 9 7 6 7 7 4 3 2 1 1 -0 -1 -2 -3 -3 -3
5 4 4 4 4 2 2 0 0 2 3 3 5 4 5 3 4 5 5 8 9 9 8 7 6 6 5 7 7 7 7 6 6 6 6 8 10 9 8 6 6 7 6 3 2 2 1 0 -1 -2 -3 -3 -4 -4
4 4 4 4 4 1 1 1 3 4 4 4 4 5 5 6 6 7 8 10 10 10 7 8 7 7 8 6 6 4 5 6 6 6 6 9 9 7 7 6 6 6 4 2 1 1 1 1 -0 -2 -3 -3 -4 -4
4 4 4 4 4 3 2 2 3 4 5 4 6 5 6 6 7 6 7 9 10 10 7 9 9 7 6 6 6 6 6 6 6 6 3 2 5 6 4 4 4 5 3 3 2 2 1 1 -0 -2 -2 -3 -4 -4
4 4 3 4 3 4 3 4 4 4 5 4 6 6 4 5 4 4 6 7 5 7 5 6 6 4 7 3 8 7 7 9 7 6 6 3 3 5 4 5 6 4 2 1 0 1 1 0 -1 -1 -2 -2 -3 -3
3 3 4 3 3 4 4 4 4 4 4 4 6 6 5 5 5 5 6 6 7 6 7 6 6 6 3 6 5 10 9 8 7 6 6 5 3 3 2 3 3 -1 1 1 1 0 1 2 0 -1 -1 -1 -1 -2
3 3 3 3 3 4 4 4 5 5 5 5 5 5 5 4 4 7 6 5 4 5 7 7 8 9 6 7 8 9 9 7 4 3 4 4 4 5 4 4 5 2 -1 2 3 2 2 2 0 -0 -0 -1 -1 -2
5 2 3 3 4 3 3 4 5 5 5 5 5 6 5 4 4 5 6 4 3 5 6 7 6 6 6 6 5 4 6 7 5 5 6 5 2 2 5 5 4 4 4 3 3 2 2 -0 -0 -1 -2 -3 -3 -3
5 3 3 4 3 4 5 5 5 5 4 5 6 4 4 4 5 4 5 4 5 5 4 5 5 5 5 5 4 4 7 7 3 3 5 6 5 4 3 4 4 4 3 2 1 0 -1 -2 -2 -2 -3 -3 -4 -4
4 2 4 4 4 5 5 5 4 5 5 5 5 4 4 4 4 5 5 5 4 3 4 5 6 5 4 4 4 3 5 7 7 3 5 6 5 3 1 -0 -2 0 2 2 0 -1 -2 -2 -3 -3 -3 -3 -4 -4
3 3 4 6 6 6 5 6 6 5 3 4 4 4 4 5 5 4 2 1 1 2 3 6 5 4 4 4 6 7 7 7 7 6 6 6 6 5 4 1 -1 1 2 1 0 -1 -2 -3 -3 -3 -3 -3 -3 -4
3 5 4 4 5 5 4 4 4 4 5 4 4 3 4 4 4 1 1 1 1 2 2 2 3 4 4 4 4 4 4 5 4 4 4 3 3 3 3 3 2 2 1 1 0 -1 -1 -2 -3 -3 -3 -3 -3 -3
3 4 3 1 2 3 3 4 4 3 2 5 3 3 2 -0 -1 -1 -1 -0 1 1 -0 -1 -0 2 1 2 2 3 3 3 -1 -3 -3 -3 -3 -0 2 2 1 1 0 -0 -0 -0 -1 -2 -2 -3 -3 -3 -3 -4
2 4 3 3 3 3 2 1 2 0 1 1 1 0 -0 -2 -2 -2 -1 -1 -0 -0 -0 -0 -1 -0 -1 -1 -1 -1 -0 0 1 0 -1 -1 -1 -1 -0 -0 -0 -1 -1 -1 -2 -2 -2 -3 -3 -3 -3 -4 -4 -5
3 2 3 3 2 2 1 0 0 1 1 1 1 1 -1 -2 -3 -3 -3 -2 -1 -1 -1 -1 -1 -1 -1 -1 -1 -2 -2 -1 -0 0 1 1 -0 -1 -2 -2 -2 -3 -3 -3 -3 -3 -3 -4 -4 -4 -4 -5 -5 -5
2 3 0 1 1 0 0 1 2 2 1 1 1 0 -0 0 -1 -3 -4 -3 -1 -1 -1 -1 -1 -1 -1 -1 -1 -1 -1 -1 -1 -1 -1 -1 -2 -2 -2 -2 -3 -3 -4 -4 -4 -4 -4 -4 -4 -4 -5 -5 -5 -5
2 1 0 0 1 1 1 0 1 1 1 1 1 0 -1 -0 -1 -3 -3 -3 -2 -1 -1 -2 -2 -2 -2 -2 -2 -2 -2 -2 -2 -2 -2 -3 -3 -3 -4 -4 -4 -4 -4 -4 -4 -4 -4 -4 -4 -4 -4 -5 -5 -5
Height
638 643 648 655 664 670 677 688 698 706 719 728 737 746 754 763 770 777 783 787 787 790 789 789 791 791 790 789 790 785 794 801 813 818 824 827 819 808 801 794 809 820 835 836 837 837 829 790 791 803 801 795 797 800
640 646 650 657 665 673 680 690 700 709 719 728 737 745 753 761 769 777 783 786 788 793 796 794 795 792 795 796 797 790 786 789 797 812 812 806 812 801 801 816 793 818 811 824 821 817 793 784 785 782 785 791 793 798
641 647 652 657 666 676 683 692 702 712 719 728 736 744 752 759 768 775 782 785 789 796 797 795 794 796 795 796 795 797 795 797 791 795 797 801 802 798 814 803 790 787 788 800 801 791 787 786 783 784 785 788 790 794
641 647 654 660 667 675 685 695 704 712 720 728 735 744 751 758 768 776 780 785 787 795 802 799 795 794 795 796 798 797 798 800 796 794 796 808 809 787 796 792 793 790 783 786 791 784 781 779 779 779 782 783 788 792
639 647 654 662 669 677 687 696 705 713 721 728 736 744 752 760 768 776 782 783 786 790 800 798 789 792 794 794 797 798 800 802 801 799 801 800 793 793 796 796 800 780 783 800 802 780 783 782 777 778 782 784 787 791
639 646 654 661 668 677 685 696 704 713 720 729 737 744 752 760 768 776 783 785 787 788 797 805 797 792 791 793 795 796 796 796 797 796 799 796 791 800 811 811 778 776 774 775 778 773 776 777 776 775 778 781 784 787
637 645 652 660 668 677 686 695 704 713 722 730 738 745 752 760 766 774 781 780 783 788 797 804 799 791 791 792 794 795 794 794 794 796 801 799 796 796 810 804 778 774 774 774 769 773 776 774 776 772 773 775 779 785
635 644 651 659 668 676 686 696 704 714 722 730 737 747 754 761 769 773 775 775 780 787 796 804 796 798 791 794 798 793 797 794 795 794 794 794 794 796 794 775 774 773 772 768 765 766 770 770 769 769 769 773 779 783
632 641 650 659 668 677 685 694 704 714 722 731 740 748 754 760 765 769 777 780 782 788 794 798 791 796 793 790 792 793 792 801 793 800 793 794 798 787 771 766 765 765 765 760 761 762 763 765 765 764 768 772 775 780
629 639 649 658 666 676 685 693 704 714 723 732 740 746 751 755 761 771 779 785 785 785 786 785 785 790 791 789 793 798 796 797 797 791 783 789 768 759 758 760 760 759 756 756 760 760 761 761 760 760 760 762 767 771
626 635 645 655 665 674 682 691 702 715 723 730 737 740 743 752 762 768 777 780 782 782 780 775 774 785 785 788 790 790 793 795 792 788 784 780 763 752 751 751 746 745 748 750 751 751 752 753 754 756 756 756 761 767
623 633 643 652 662 671 681 691 702 712 717 725 731 738 746 753 761 764 767 772 772 767 763 763 766 773 779 779 788 789 788 789 784 774 783 771 752 740 741 735 740 740 741 742 742 742 741 742 742 743 746 749 755 761
621 630 640 650 660 670 680 689 699 709 717 724 727 737 741 745 743 747 750 753 760 750 742 750 762 768 773 775 780 782 785 787 770 784 769 758 740 734 734 734 735 733 733 733 733 733 733 734 733 734 737 741 748 756
617 626 636 646 656 667 677 687 698 707 717 722 724 730 735 733 733 730 730 728 731 730 730 737 750 760 764 773 774 775 774 771 783 768 752 752 737 729 729 729 730 729 728 728 728 729 728 727 727 728 730 736 744 753
613 622 631 641 652 662 674 685 696 707 709 719 720 712 719 711 714 711 712 715 718 720 727 735 745 751 762 766 764 761 766 763 751 749 744 731 725 725 726 725 725 724 725 725 725 726 725 723 724 729 732 737 742 751
614 622 628 637 646 659 672 686 699 706 709 711 708 705 703 709 712 711 711 713 712 714 723 733 743 750 751 750 753 754 746 741 740 735 726 722 721 720 720 719 719 719 721 722 723 725 727 728 730 732 737 741 746 750
611 614 623 634 645 655 666 681 692 697 699 700 698 697 697 696 695 700 702 705 705 713 722 735 738 738 740 745 742 738 739 722 731 722 718 715 715 715 715 716 717 718 720 722 724 727 729 731 733 737 742 749 752 756
605 614 622 633 644 656 664 677 679 683 685 687 686 686 690 692 695 697 698 696 701 705 711 718 719 728 735 729 727 722 719 719 716 716 713 711 709 709 710 713 715 717 720 723 725 728 731 734 738 741 745 749 754 759
603 612 622 634 641 652 663 670 671 669 672 676 678 677 680 683 682 684 687 688 689 695 705 709 714 716 712 710 712 717 714 712 711 708 706 704 704 706 708 711 714 717 720 722 726 729 732 734 737 742 746 751 755 760
604 613 624 632 644 652 658 663 665 663 665 667 669 674 677 677 677 681 684 685 686 691 702 698 692 697 701 701 700 702 701 699 702 705 709 707 704 705 708 710 713 716 720 724 727 729 733 737 739 742 746 750 754 758
600 611 622 635 643 647 651 652 659 663 659 664 665 669 676 674 678 681 681 682 692 688 701 691 690 692 689 691 691 691 693 693 695 697 699 706 704 704 708 710 713 715 717 721 725 729 731 734 738 742 745 749 753 757
599 610 620 631 637 642 644 646 649 656 662 663 662 665 672 675 677 677 681 683 680 680 679 682 682 686 690 688 687 686 688 689 690 691 692 695 702 704 705 707 710 714 716 718 721 725 728 732 736 740 745 749 752 757
605 614 622 630 635 639 647 645 651 655 660 661 662 667 673 676 674 668 676 675 674 668 669 673 674 677 681 682 683 685 686 687 690 690 692 693 695 697 700 704 707 710 714 717 720 723 727 731 735 739 744 748 752 756
607 615 622 629 632 642 648 648 649 654 658 660 662 663 670 672 672 672 670 669 665 663 665 667 669 676 678 679 681 682 683 684 688 688 690 691 694 697 699 702 705 707 709 713 717 722 725 729 733 738 743 747 751 755
611 627 628 629 634 639 641 643 647 650 656 654 656 666 669 672 672 674 665 662 659 659 661 663 665 667 671 673 675 676 678 680 682 685 685 688 691 696 699 702 703 705 708 711 716 719 724 728 732 737 741 745 749 754
614 624 620 621 627 627 634 639 644 643 647 652 652 658 665 668 671 664 653 650 652 653 654 655 658 663 665 665 669 671 670 673 677 680 681 684 687 691 696 699 703 705 706 709 713 718 722 727 731 736 740 745 749 753
618 618 615 610 613 617 626 629 632 640 649 651 651 657 659 659 660 651 650 651 652 652 649 649 651 654 657 660 661 662 664 668 672 675 678 682 684 686 689 693 697 700 703 706 710 714 719 725 730 734 738 743 747 751
614 612 614 615 615 617 627 633 637 642 638 638 645 654 653 651 648 653 655 655 654 654 652 652 653 654 656 658 660 662 666 669 672 675 679 682 684 686 689 692 695 698 701 705 709 714 718 723 727 732 737 741 745 749
616 614 616 627 627 627 628 628 629 632 634 631 639 642 648 654 658 657 657 656 656 656 655 656 657 657 659 662 663 665 666 668 673 680 683 686 686 687 688 690 693 697 700 705 709 713 718 722 727 731 735 739 744 748
617 614 622 625 627 628 634 635 634 638 636 638 640 647 653 657 659 659 658 658 658 658 658 659 660 660 662 664 666 668 670 671 672 674 678 680 682 686 688 689 693 697 701 705 710 715 720 724 729 733 737 740 743 746
615 619 622 625 631 634 637 638 638 639 641 642 642 645 652 658 661 662 661 659 658 659 660 660 661 662 663 665 666 668 671 672 673 675 677 679 681 685 688 691 694 698 703 706 710 714 719 723 727 731 735 739 742 745
618 619 627 631 635 638 639 637 638 639 641 641 646 649 652 651 656 661 661 659 658 659 659 660 661 662 663 665 666 668 669 670 673 675 677 678 681 685 688 692 696 700 703 706 710 714 718 722 727 731 734 738 741 743
618 621 624 630 634 634 636 638 638 640 640 642 644 647 651 651 657 662 661 660 659 658 659 660 661 662 664 665 666 668 670 671 673 675 678 680 682 685 689 694 697 701 704 707 711 716 720 724 728 731 734 736 739 741
Wind_Speed
17 25 27 31 34 31 43 44 42 40 40 40 38 36 33 31 28 25 13 5 4 1 4 9 6 6 5 4 1 4 5 4 3 3 4 4 4 5 5 5 8 6 6 4 3 2 10 10 5 8 5 5 7 6
22 22 21 36 33 32 29 31 35 35 35 36 35 34 32 31 27 22 6 8 5 4 2 6 7 9 9 3 2 5 6 5 5 3 2 2 2 2 4 2 5 4 7 6 9 7 7 5 4 5 7 6 5 7
24 25 23 25 36 36 36 34 33 33 31 31 31 32 31 29 28 25 10 14 8 3 4 3 1 4 10 7 8 3 4 4 4 2 3 4 3 4 3 5 5 5 9 5 4 7 8 10 4 6 6 7 6 7
26 26 28 29 28 31 33 35 35 33 32 31 30 29 28 27 26 26 14 12 9 6 2 4 3 3 3 2 5 3 2 5 4 1 1 2 2 1 2 4 3 5 5 6 4 6 5 1 6 5 2 8 8 8
29 29 30 32 34 34 34 31 29 31 30 28 27 25 24 24 23 25 12 14 13 5 3 3 12 2 4 2 4 3 7 2 3 2 2 1 1 3 3 2 2 2 3 3 5 5 5 5 2 1 8 8 10 8
32 32 32 32 33 34 34 35 33 29 27 25 25 25 24 24 23 19 1 10 17 6 3 2 5 3 4 4 4 7 4 3 3 2 2 2 1 2 1 3 5 5 4 1 4 2 3 7 8 6 9 11 9 9
34 34 34 33 33 34 34 34 34 32 31 27 27 26 25 26 31 11 4 5 24 11 3 1 4 2 2 2 2 1 1 0 2 2 1 2 2 2 2 4 4 8 8 11 12 3 4 4 6 6 7 15 21 17
37 36 36 35 35 35 35 35 34 33 31 27 26 26 27 28 25 17 1 4 28 11 4 1 2 3 2 1 1 2 2 1 2 2 1 1 2 2 4 6 9 13 13 17 18 11 6 7 7 6 7 17 12 9
40 38 37 37 36 36 36 34 34 34 32 28 27 24 24 14 6 9 14 25 13 5 5 4 2 3 2 1 2 2 2 1 2 2 3 3 3 7 6 7 8 8 11 13 11 11 11 9 10 9 9 11 12 9
43 41 40 39 38 38 37 36 35 35 35 32 24 6 2 11 16 18 14 2 2 1 1 3 3 3 3 2 2 2 1 2 2 4 3 4 10 13 9 7 10 11 11 10 10 11 7 7 8 9 8 14 14 12
43 42 41 41 41 40 40 38 37 37 36 15 3 2 14 27 11 2 3 3 3 3 4 4 9 5 3 3 2 3 2 2 2 4 6 4 5 7 12 17 22 22 19 15 12 9 9 9 9 7 5 11 18 22
43 44 44 43 42 41 40 39 41 40 14 14 14 18 19 4 2 5 5 4 4 6 5 7 6 4 3 4 3 2 3 2 5 3 3 4 2 6 10 15 12 13 15 16 20 16 16 14 19 12 10 16 22 26
43 45 47 46 45 44 44 43 44 32 29 15 4 3 3 4 6 6 8 6 4 4 6 7 8 5 2 3 2 3 4 4 1 0 4 4 3 5 7 6 6 7 9 9 11 12 11 9 13 15 15 23 28 27
42 45 49 49 50 48 46 44 45 39 27 2 4 8 6 5 5 4 9 8 6 5 10 13 8 4 3 4 3 5 5 3 3 4 5 2 7 10 7 6 5 9 9 9 7 5 9 11 11 19 26 33 32 27
36 42 44 50 50 53 50 48 48 41 4 3 3 5 7 4 3 8 9 9 3 7 9 10 3 4 3 3 4 4 5 5 6 4 5 6 9 7 7 7 8 8 6 3 2 3 3 6 15 16 25 28 31 33
34 32 35 43 53 54 53 51 47 15 2 3 5 3 3 6 2 4 4 7 5 9 9 4 4 3 4 4 5 8 5 6 4 4 4 4 6 7 8 8 6 5 5 4 6 8 10 13 15 18 23 26 30 35
39 8 35 40 49 52 53 28 9 4 6 5 5 4 2 5 11 7 10 5 7 8 9 4 7 8 4 3 5 5 5 8 4 5 3 4 5 8 6 6 6 6 7 10 13 13 13 20 24 22 14 16 23 26
14 24 40 42 44 44 21 8 5 5 6 4 5 4 5 3 5 4 5 4 8 9 8 5 5 5 5 5 4 4 6 4 5 5 6 7 7 5 8 7 7 7 8 14 17 18 18 17 13 11 19 21 22 23
31 36 45 49 32 9 4 2 2 3 2 4 3 3 5 7 3 5 8 10 6 10 5 3 4 5 8 5 5 4 4 5 5 6 5 4 8 8 9 11 11 8 13 16 17 13 16 18 16 20 20 21 17 19
35 45 54 46 36 4 4 3 6 2 4 4 3 4 4 4 5 4 7 8 10 8 6 9 12 3 5 4 4 5 5 5 4 2 1 1 7 10 9 11 9 10 17 18 18 19 18 15 19 22 21 20 20 19
41 45 57 43 5 3 3 4 3 3 2 2 4 5 3 2 3 3 5 4 2 6 4 3 4 3 4 3 6 7 5 4 3 5 5 3 5 11 10 11 12 15 13 12 9 12 17 14 19 23 24 23 22 23
25 55 19 6 3 3 2 1 5 4 2 2 5 3 3 2 2 3 3 3 6 5 6 5 4 4 3 4 4 6 5 6 6 6 9 15 4 4 4 11 10 3 11 15 16 14 18 20 25 25 25 24 24 25
34 16 5 4 3 3 2 2 4 4 3 3 2 3 2 2 3 3 4 5 4 5 6 6 10 9 6 8 7 6 9 11 4 3 7 8 11 12 13 16 17 13 5 16 21 23 22 24 28 27 25 25 27 26
21 4 3 3 2 3 3 3 3 4 3 3 4 4 4 2 1 1 3 3 3 4 5 7 4 4 3 5 4 5 10 11 9 9 13 11 4 6 18 19 18 22 23 23 24 25 24 26 28 26 26 24 23 25
6 3 4 4 3 5 4 4 4 3 3 4 5 3 4 3 3 3 3 3 5 5 5 5 5 6 5 6 4 6 17 17 5 5 15 16 11 11 11 16 17 20 22 25 23 23 20 24 24 24 24 24 24 26
4 3 4 4 4 4 4 4 5 5 3 3 3 4 4 3 3 5 4 5 4 4 7 8 8 5 5 4 4 5 12 23 20 4 13 20 21 15 7 6 4 10 25 29 24 22 22 23 23 24 22 23 25 25
4 3 3 3 4 5 3 3 3 4 3 5 4 3 3 5 5 4 1 3 2 2 6 7 9 4 4 4 7 8 17 23 18 12 11 19 17 25 27 15 7 19 25 29 29 29 26 23 23 25 25 24 26 25
1 3 4 1 4 2 4 3 4 4 4 4 5 6 9 8 5 1 2 4 8 7 10 12 11 9 10 13 18 24 21 18 16 17 16 11 10 14 16 17 18 21 27 30 29 27 28 28 28 27 26 24 24 23
1 1 4 5 4 3 2 2 3 1 2 5 5 4 3 2 2 2 4 6 3 3 7 6 10 15 18 16 15 16 20 22 9 6 7 4 2 4 17 19 24 25 26 26 26 26 26 25 25 26 25 24 23 21
1 1 3 2 3 2 2 2 2 2 3 2 3 2 2 2 3 5 5 1 2 2 5 8 9 8 5 6 6 6 7 9 9 8 6 6 7 13 21 25 24 23 24 25 24 22 20 20 20 20 21 20 20 19
2 2 3 2 2 2 2 2 1 2 2 2 3 3 3 3 2 2 5 7 2 7 6 4 5 8 8 7 6 4 3 7 7 9 6 13 17 21 22 22 21 21 22 24 27 28 27 26 25 25 23 22 20 18
1 4 4 3 2 2 3 3 2 2 2 2 2 2 3 3 2 1 7 6 4 4 5 7 6 5 8 8 10 9 7 12 13 12 10 17 20 21 22 21 20 19 23 26 27 27 26 25 24 23 22 19 18 16
3 4 3 3 3 4 1 2 1 2 1 2 2 2 2 2 2 1 2 5 4 5 9 12 11 10 10 11 11 10 12 12 12 13 15 17 20 24 22 20 20 23 25 25 24 25 23 21 21 20 19 17 16 14
Wind_Direction
179 199 186 188 185 173 172 178 181 181 182 182 182 186 190 195 198 192 196 223 83 20 22 21 15 23 348 22 173 209 77 343 72 155 142 206 183 226 214 195 162 158 157 177 156 206 255 239 288 195 197 149 142 142
182 178 180 179 175 176 171 169 173 176 183 183 184 188 192 194 196 191 176 198 199 49 270 355 338 35 38 33 266 325 163 158 174 135 191 192 205 223 185 225 160 175 176 180 179 206 234 270 173 134 158 148 141 119
186 181 172 170 179 179 170 169 172 176 182 185 186 189 192 193 193 187 166 151 122 87 313 51 60 317 2 16 17 41 22 333 8 8 174 206 211 157 194 229 221 219 190 188 134 245 242 229 176 167 169 164 158 141
185 181 181 178 174 174 178 180 184 184 184 183 183 189 192 193 191 186 183 167 122 110 139 278 46 351 282 295 323 331 82 343 298 340 231 201 177 193 226 220 165 203 178 209 243 270 338 237 215 259 137 126 121 128
192 188 184 183 180 181 180 178 176 176 176 177 180 182 186 189 186 186 190 194 180 138 165 290 321 71 287 260 262 266 248 182 317 331 358 256 300 33 323 52 250 206 218 156 215 216 174 226 322 43 146 162 155 142
196 192 188 185 182 182 182 182 182 180 179 181 184 185 186 186 179 162 66 222 199 104 87 357 308 289 340 195 262 284 245 214 183 176 186 266 247 104 209 234 213 246 286 251 252 182 247 261 273 240 166 164 160 150
194 192 189 186 184 183 183 183 183 183 179 179 181 181 182 181 174 163 165 181 183 154 85 357 285 314 313 199 190 219 21 24 130 178 182 192 219 126 199 209 293 307 307 299 285 343 306 253 253 234 172 171 157 156
191 191 189 188 186 183 184 184 183 182 178 178 174 179 178 175 172 200 203 181 162 102 93 264 264 324 201 173 164 190 128 83 305 186 329 182 311 181 247 205 215 234 251 267 272 266 233 265 281 263 175 139 144 151
188 189 189 188 186 184 182 181 182 179 175 173 171 172 165 170 154 175 197 157 146 131 158 175 206 239 185 160 85 25 85 112 260 201 207 146 218 223 205 198 208 217 223 241 259 258 261 253 258 251 156 163 158 164
185 186 187 187 187 186 183 180 178 176 170 165 156 142 145 165 139 149 154 146 224 302 145 180 179 198 201 131 115 109 145 145 228 237 181 210 243 242 244 262 277 264 253 244 252 266 266 262 247 244 212 183 177 170
184 185 187 187 187 186 184 181 179 172 160 163 130 168 134 137 126 137 141 177 154 201 190 204 195 146 226 149 139 156 158 159 229 250 178 247 259 235 226 235 238 244 258 260 257 253 252 244 246 252 245 170 164 155
184 185 185 185 185 185 184 184 177 166 149 145 136 110 128 132 127 154 177 170 199 202 189 192 174 142 180 139 122 193 170 188 246 196 158 255 192 174 213 233 243 243 248 253 251 251 254 248 246 230 182 166 165 163
186 186 185 184 184 184 182 182 177 164 142 142 114 107 152 150 178 194 158 151 191 212 178 149 159 138 141 176 140 160 197 220 209 224 231 227 195 241 235 229 256 247 240 244 241 228 242 261 270 194 171 163 154 153
189 188 186 186 184 183 182 180 171 164 158 112 160 153 202 159 208 188 178 181 213 164 155 162 156 141 157 162 168 163 211 156 246 234 224 219 219 228 250 252 250 261 265 266 250 256 262 266 218 185 162 154 150 149
188 189 190 184 182 179 181 179 172 166 126 161 194 197 189 183 220 197 198 191 192 155 160 148 92 112 138 181 180 183 173 228 218 201 228 224 226 221 230 241 248 252 204 184 219 245 298 178 138 124 145 147 146 147
180 183 183 183 177 178 176 173 168 169 136 182 230 183 204 174 215 215 179 195 199 159 149 138 125 159 193 177 176 202 203 207 223 226 228 227 232 240 244 253 232 161 155 136 130 142 126 114 121 118 125 137 146 152
176 173 174 178 181 174 166 155 148 177 166 194 208 215 196 196 197 193 204 185 187 165 163 134 165 189 145 190 198 205 205 228 216 257 243 221 244 241 196 164 150 144 131 141 130 135 127 125 128 123 121 134 140 152
168 171 169 171 170 167 167 162 169 148 174 185 186 192 193 186 173 183 194 187 181 191 176 184 154 184 173 189 224 231 244 226 227 227 245 255 260 177 155 154 149 148 141 146 144 140 139 134 129 127 132 136 134 145
170 166 170 168 157 113 129 160 230 157 149 153 205 187 174 209 207 183 186 201 205 185 156 175 217 197 210 210 185 222 220 208 225 234 229 226 176 151 147 150 150 151 148 147 146 150 158 158 148 147 146 148 147 153
171 169 164 160 155 110 128 144 185 175 169 176 167 181 190 195 188 183 196 202 199 210 203 203 217 212 173 220 202 205 218 216 191 192 246 256 149 141 148 155 160 160 149 150 152 153 153 156 152 152 156 156 155 164
156 162 153 147 128 122 140 165 121 186 124 161 168 144 194 120 145 178 204 175 192 167 234 232 175 225 203 188 215 214 216 196 211 190 197 178 186 156 157 167 173 165 154 151 152 163 164 165 156 162 164 168 170 170
140 144 136 115 103 153 113 263 124 127 93 252 132 119 136 147 194 147 254 215 220 222 201 202 191 176 191 191 208 184 167 128 128 108 126 126 146 168 174 177 173 156 161 163 164 168 172 176 166 170 172 174 174 174
133 123 72 74 104 75 86 346 97 151 143 173 76 97 116 197 206 140 195 205 222 203 198 207 215 197 191 189 175 175 174 163 160 152 159 162 170 176 174 187 191 160 153 176 181 177 176 172 166 167 171 171 169 169
116 73 97 102 81 94 120 144 119 115 121 159 156 146 153 175 6 117 232 207 223 169 176 186 144 144 124 165 181 184 193 180 182 176 182 165 160 182 186 190 191 193 189 178 176 174 170 157 160 159 159 153 156 160
95 128 126 129 148 127 144 145 146 142 153 175 152 131 150 164 173 217 234 229 185 190 180 178 174 180 171 195 198 205 201 194 179 184 200 194 168 155 169 184 188 188 183 169 162 161 152 152 155 158 158 159 163 171
89 188 190 150 148 127 150 132 149 170 133 130 143 116 162 166 171 240 219 181 179 170 185 193 195 183 200 171 172 198 208 207 205 177 202 194 182 169 168 164 162 186 189 183 166 155 154 157 160 163 164 171 176 179
136 180 196 222 145 122 92 94 129 112 144 160 142 145 131 179 227 244 100 15 58 348 56 151 165 162 172 191 208 225 211 193 193 199 186 188 196 197 190 179 184 189 186 184 177 171 163 164 165 169 173 180 183 187
144 218 137 23 88 76 109 106 134 168 187 164 143 167 174 199 218 56 53 38 18 42 72 73 89 106 108 131 136 132 129 137 133 138 143 139 159 191 204 207 204 192 187 186 184 180 175 176 176 177 178 180 186 191
130 106 79 45 53 49 95 150 177 98 355 171 167 170 142 56 22 25 15 18 343 102 79 73 72 115 116 128 138 146 149 151 131 142 153 154 129 143 180 178 170 175 178 178 185 188 188 187 187 186 186 186 187 187
133 84 87 92 150 155 82 344 61 10 13 49 100 104 99 77 30 10 16 277 247 93 126 137 145 130 132 128 126 119 168 190 201 169 174 176 166 172 161 161 164 168 172 173 169 167 171 171 168 167 168 170 177 183
95 82 96 94 98 80 106 95 20 60 52 53 13 71 99 128 132 40 28 4 94 151 142 142 152 165 154 154 159 155 170 200 174 170 165 171 167 168 166 166 165 159 163 166 165 162 161 161 163 164 167 169 173 179
159 183 144 119 113 124 162 189 168 134 148 133 108 111 168 166 107 75 353 353 212 179 182 173 164 158 182 176 174 174 198 191 192 184 184 172 169 170 167 161 156 155 160 164 166 165 166 164 165 171 173 175 177 179
106 74 88 105 129 162 148 126 93 89 72 82 72 74 41 60 104 112 19 36 33 111 121 121 136 145 152 161 166 167 160 153 160 169 164 162 157 162 155 151 155 159 161 160 161 162 162 165 167 170 173 172 176 182